GPS BIIRM-3 (PRN 12)

Last updated on Sun Apr 12 2026 00:03:23 GMT+0000 (Coordinated Universal Time)

1 29601U 06052A 26100.60919747 -.00000010 00000+0 00000+0 0 9993 2 29601 54.9476 216.6840 0086899 90.0331 270.9577 2.00554196142059
UTC large
Height (km)
Speed (km/s)
/
Latitude / Longitude
Inclination (degrees)
Orbital Period (minutes)
Azimuth
Elevation
Range (km)
Doppler Factor

Next 0 passes for location: London (51.5072 / 0.1276)

Sorry there are no passes over London.
GPS BIIRM-3 (PRN 12)